Cleveland, OH

7:54 PM EDT on September 29, 2016 (GMT -0400)
Burke Lakefront

Weather History for KBKL - January, 2015

Change the Weather History Date:

Friday, January 23, 2015

  Actual Average Record
Temperature  
Mean Temperature 30 °F -  
Max Temperature 32 °F 31 °F 60 °F (1999)
Min Temperature 27 °F 20 °F 5 °F (2014)
Degree Days  
Heating Degree Days 36    
Moisture  
Dew Point 21 °F    
Average Humidity 73    
Maximum Humidity 78    
Minimum Humidity 66    
Precipitation  
Precipitation 0.00 in - - ()
Sea Level Pressure  
Sea Level Pressure 30.17 in    
Wind  
Wind Speed 9 mph (SSW)    
Max Wind Speed 13 mph    
Max Gust Speed -    
Visibility 10 miles    
Events      
Averages and records for this station are not official NWS values.
T = Trace of Precipitation, MM = Missing Value Source: NWS Daily Summary

Daily Weather History Graph

Daily Weather History Graph

Search for Another Location

Airport or City:

Trip Planner

Search our weather history database for the weather conditions in past years. The results will help you decide how hot, cold, wet, or windy it might be!

Date:

Astronomy

Jan. 23, 2015 Rise Set
Actual Time 7:46 AM EST 5:31 PM EST
Civil Twilight 7:16 AM EST 6:01 PM EST
Nautical Twilight 6:42 AM EST 6:34 PM EST
Astronomical Twilight 6:09 AM EST 7:07 PM EST
Moon 9:34 AM EST (1/23) 9:42 PM EST (1/23)
Length of Visible Light 10h 44m
Length of Day
9h 44m
Waxing Crescent, 14% of the Moon is Illuminated
Jan 23
Waxing Crescent
Jan 26
First Quarter
Feb 3
Full
Feb 11
Last Quarter
Feb 18
New

Hourly Weather History & Observations

Time (EST) Temp. Windchill Dew Point Humidity Pressure Visibility Wind Dir Wind Speed Gust Speed Precip Events Conditions
12:53 AM 28.0 °F 20.0 °F 21.0 °F 75% 30.42 in 10.0 mi SW 8.1 mph - N/A   Overcast
1:53 AM 28.0 °F 20.0 °F 21.0 °F 75% 30.40 in 10.0 mi SW 8.1 mph - N/A   Overcast
2:53 AM 28.0 °F 18.6 °F 21.0 °F 75% 30.39 in 10.0 mi SSW 10.4 mph - N/A   Overcast
3:53 AM 28.0 °F 17.5 °F 21.0 °F 75% 30.37 in 10.0 mi SSW 12.7 mph - N/A   Overcast
4:53 AM 27.0 °F 17.3 °F 21.0 °F 78% 30.36 in 10.0 mi SW 10.4 mph - N/A   Overcast
5:53 AM 27.0 °F 16.7 °F 19.9 °F 75% 30.35 in 10.0 mi SSW 11.5 mph - N/A   Overcast
6:53 AM 27.0 °F 16.1 °F 19.9 °F 75% 30.34 in 10.0 mi SW 12.7 mph - N/A   Overcast
7:53 AM 27.0 °F 18.0 °F 19.9 °F 75% 30.31 in 10.0 mi South 9.2 mph - N/A   Overcast
8:53 AM 27.0 °F 17.3 °F 19.9 °F 75% 30.29 in 10.0 mi SW 10.4 mph - N/A   Overcast
9:53 AM 28.0 °F 18.1 °F 21.0 °F 75% 30.27 in 10.0 mi SSW 11.5 mph - N/A   Overcast
10:53 AM 28.0 °F 18.1 °F 21.0 °F 75% 30.25 in 10.0 mi SSW 11.5 mph - N/A   Overcast
11:53 AM 28.9 °F 19.8 °F 21.0 °F 72% 30.22 in 10.0 mi SSW 10.4 mph - N/A   Overcast
12:53 PM 30.0 °F 26.5 °F 21.9 °F 72% 30.16 in 10.0 mi SSE 3.5 mph - N/A   Mostly Cloudy
1:10 PM 30.0 °F 22.4 °F 21.9 °F 72% 30.13 in 10.0 mi SW 8.1 mph - N/A   Scattered Clouds
1:18 PM 30.9 °F 21.7 °F 21.9 °F 69% 30.12 in 10.0 mi SSW 11.5 mph - N/A   Mostly Cloudy
1:26 PM 30.9 °F 22.8 °F 21.9 °F 69% 30.11 in 10.0 mi South 9.2 mph - N/A   Partly Cloudy
1:53 PM 32.0 °F 24.2 °F 21.9 °F 66% 30.13 in 10.0 mi SW 9.2 mph - N/A   Partly Cloudy
2:53 PM 32.0 °F 25.6 °F 21.9 °F 66% 30.09 in 10.0 mi SW 6.9 mph - N/A   Clear
3:53 PM 30.9 °F 23.5 °F 21.9 °F 69% 30.07 in 9.0 mi SSW 8.1 mph - N/A   Clear
4:53 PM 30.0 °F 25.2 °F 21.9 °F 72% 30.06 in 10.0 mi West 4.6 mph - N/A   Clear
5:53 PM 28.0 °F - 21.0 °F 75% 30.03 in 10.0 mi Calm Calm - N/A   Clear
6:53 PM 30.0 °F 23.2 °F 21.9 °F 72% 30.02 in 10.0 mi South 6.9 mph - N/A   Clear
7:53 PM 28.9 °F 22.8 °F 21.0 °F 72% 29.99 in 10.0 mi South 5.8 mph - N/A   Clear
8:53 PM 28.9 °F 20.4 °F 21.0 °F 72% 29.96 in 10.0 mi South 9.2 mph - N/A   Clear
9:53 PM 28.0 °F 20.8 °F 21.0 °F 75% 29.93 in 10.0 mi SW 6.9 mph - N/A   Clear
10:53 PM 27.0 °F 20.5 °F 21.0 °F 78% 29.89 in 7.0 mi WSW 5.8 mph - N/A   Clear
11:53 PM 27.0 °F 20.5 °F 21.0 °F 78% 29.85 in 8.0 mi SW 5.8 mph - N/A   Clear